Year,Month,Day,Hour,Minute,Value (Times are PST for temperature in C)
2013,04,22,00,00,4.80
2013,04,22,00,01,4.80
2013,04,22,00,02,4.70
2013,04,22,00,03,4.60
2013,04,22,00,04,4.60
2013,04,22,00,05,4.50
2013,04,22,00,06,4.40
2013,04,22,00,07,4.40
2013,04,22,00,08,4.30
2013,04,22,00,09,4.20
2013,04,22,00,10,4.20
2013,04,22,00,11,4.20
2013,04,22,00,12,4.10
2013,04,22,00,13,4.00
2013,04,22,00,14,4.00
2013,04,22,00,15,4.00
2013,04,22,00,16,3.90
2013,04,22,00,17,3.90
2013,04,22,00,18,3.90
2013,04,22,00,19,3.90
2013,04,22,00,20,3.80
2013,04,22,00,21,3.80
2013,04,22,00,22,3.80
2013,04,22,00,23,3.80
2013,04,22,00,24,3.80
2013,04,22,00,25,3.80
2013,04,22,00,26,3.80
2013,04,22,00,27,3.80
2013,04,22,00,28,3.80
2013,04,22,00,29,3.80
2013,04,22,00,30,3.70
2013,04,22,00,31,3.70
2013,04,22,00,32,3.60
2013,04,22,00,33,3.60
2013,04,22,00,34,3.60
2013,04,22,00,35,3.60
2013,04,22,00,36,3.50
2013,04,22,00,37,3.50
2013,04,22,00,38,3.50
2013,04,22,00,39,3.50
2013,04,22,00,40,3.50
2013,04,22,00,41,3.50
2013,04,22,00,42,3.50
2013,04,22,00,43,3.40
2013,04,22,00,44,3.40
2013,04,22,00,45,3.40
2013,04,22,00,46,3.50
2013,04,22,00,47,3.50
2013,04,22,00,48,3.50
2013,04,22,00,49,3.50
2013,04,22,00,50,3.50
2013,04,22,00,51,3.50
2013,04,22,00,52,3.50
2013,04,22,00,53,3.50
2013,04,22,00,54,3.50
2013,04,22,00,55,3.50
2013,04,22,00,56,3.50
2013,04,22,00,57,3.50
2013,04,22,00,58,3.50
2013,04,22,00,59,3.50
2013,04,22,01,00,3.40
2013,04,22,01,01,3.40
2013,04,22,01,02,3.50
2013,04,22,01,03,3.50
2013,04,22,01,04,3.40
2013,04,22,01,05,3.40
2013,04,22,01,06,3.40
2013,04,22,01,07,3.40
2013,04,22,01,08,3.40
2013,04,22,01,09,3.40
2013,04,22,01,10,3.40
2013,04,22,01,11,3.40
2013,04,22,01,12,3.40
2013,04,22,01,13,3.40
2013,04,22,01,14,3.40
2013,04,22,01,15,3.40
2013,04,22,01,16,3.40
2013,04,22,01,17,3.40
2013,04,22,01,18,3.40
2013,04,22,01,19,3.40
2013,04,22,01,20,3.40
2013,04,22,01,21,3.30
2013,04,22,01,22,3.30
2013,04,22,01,23,3.30
2013,04,22,01,24,3.30
2013,04,22,01,25,3.30
2013,04,22,01,26,3.40
2013,04,22,01,27,3.40
2013,04,22,01,28,3.30
2013,04,22,01,29,3.30
2013,04,22,01,30,3.30
2013,04,22,01,31,3.30
2013,04,22,01,32,3.30
2013,04,22,01,33,3.30
2013,04,22,01,34,3.30
2013,04,22,01,35,3.30
2013,04,22,01,36,3.30
2013,04,22,01,37,3.30
2013,04,22,01,38,3.40
2013,04,22,01,39,3.50
2013,04,22,01,40,3.50
2013,04,22,01,41,3.60
2013,04,22,01,42,3.60
2013,04,22,01,43,3.70
2013,04,22,01,44,3.70
2013,04,22,01,45,3.70
2013,04,22,01,46,3.70
2013,04,22,01,47,3.70
2013,04,22,01,48,3.70
2013,04,22,01,49,3.70
2013,04,22,01,50,3.70
2013,04,22,01,51,3.70
2013,04,22,01,52,3.60
2013,04,22,01,53,3.60
2013,04,22,01,54,3.60
2013,04,22,01,55,3.60
2013,04,22,01,56,3.60
2013,04,22,01,57,3.70
2013,04,22,01,58,3.70
2013,04,22,01,59,3.70
2013,04,22,02,00,3.70
2013,04,22,02,01,3.70
2013,04,22,02,02,3.70
2013,04,22,02,03,3.70
2013,04,22,02,04,3.70
2013,04,22,02,05,3.70
2013,04,22,02,06,3.70
2013,04,22,02,07,3.60
2013,04,22,02,08,3.60
2013,04,22,02,09,3.60
2013,04,22,02,10,3.60
2013,04,22,02,11,3.50
2013,04,22,02,12,3.50
2013,04,22,02,13,3.50
2013,04,22,02,14,3.50
2013,04,22,02,15,3.50
2013,04,22,02,16,3.50
2013,04,22,02,17,3.50
2013,04,22,02,18,3.50
2013,04,22,02,19,3.60
2013,04,22,02,20,3.70
2013,04,22,02,21,3.80
2013,04,22,02,22,3.90
2013,04,22,02,23,4.00
2013,04,22,02,24,4.00
2013,04,22,02,25,4.20
2013,04,22,02,26,4.20
2013,04,22,02,27,4.30
2013,04,22,02,28,4.40
2013,04,22,02,29,4.40
2013,04,22,02,30,4.50
2013,04,22,02,31,4.50
2013,04,22,02,32,4.50
2013,04,22,02,33,4.60
2013,04,22,02,34,4.60
2013,04,22,02,35,4.60
2013,04,22,02,36,4.60
2013,04,22,02,37,4.60
2013,04,22,02,38,4.70
2013,04,22,02,39,4.70
2013,04,22,02,40,4.70
2013,04,22,02,41,4.60
2013,04,22,02,42,4.60
2013,04,22,02,43,4.60
2013,04,22,02,44,4.60
2013,04,22,02,45,4.70
2013,04,22,02,46,4.70
2013,04,22,02,47,4.70
2013,04,22,02,48,4.70
2013,04,22,02,49,4.60
2013,04,22,02,50,4.60
2013,04,22,02,51,4.60
2013,04,22,02,52,4.60
2013,04,22,02,53,4.60
2013,04,22,02,54,4.60
2013,04,22,02,55,4.60
2013,04,22,02,56,4.60
2013,04,22,02,57,4.60
2013,04,22,02,58,4.60
2013,04,22,02,59,4.60
2013,04,22,03,00,4.50
2013,04,22,03,01,4.50
2013,04,22,03,02,4.40
2013,04,22,03,03,4.40
2013,04,22,03,04,4.20
2013,04,22,03,05,4.10
2013,04,22,03,06,4.00
2013,04,22,03,07,3.90
2013,04,22,03,08,3.80
2013,04,22,03,09,3.60
2013,04,22,03,10,3.50
2013,04,22,03,11,3.40
2013,04,22,03,12,3.20
2013,04,22,03,13,3.10
2013,04,22,03,14,3.00
2013,04,22,03,15,2.90
2013,04,22,03,16,2.90
2013,04,22,03,17,2.80
2013,04,22,03,18,2.70
2013,04,22,03,19,2.70
2013,04,22,03,20,2.70
2013,04,22,03,21,2.70
2013,04,22,03,22,2.70
2013,04,22,03,23,2.70
2013,04,22,03,24,2.70
2013,04,22,03,25,2.70
2013,04,22,03,26,2.70
2013,04,22,03,27,2.70
2013,04,22,03,28,2.70
2013,04,22,03,29,2.70
2013,04,22,03,30,2.80
2013,04,22,03,31,2.80
2013,04,22,03,32,2.80
2013,04,22,03,33,2.90
2013,04,22,03,34,2.90
2013,04,22,03,35,2.90
2013,04,22,03,36,2.90
2013,04,22,03,37,2.90
2013,04,22,03,38,2.90
2013,04,22,03,39,2.90
2013,04,22,03,40,2.90
2013,04,22,03,41,2.90
2013,04,22,03,42,2.90
2013,04,22,03,43,2.90
2013,04,22,03,44,2.90
2013,04,22,03,45,3.00
2013,04,22,03,46,3.10
2013,04,22,03,47,3.10
2013,04,22,03,48,3.20
2013,04,22,03,49,3.30
2013,04,22,03,50,3.30
2013,04,22,03,51,3.40
2013,04,22,03,52,3.50
2013,04,22,03,53,3.60
2013,04,22,03,54,3.60
2013,04,22,03,55,3.70
2013,04,22,03,56,3.80
2013,04,22,03,57,3.90
2013,04,22,03,58,4.00
2013,04,22,03,59,4.00
2013,04,22,04,00,4.10
2013,04,22,04,01,4.10
2013,04,22,04,02,4.10
2013,04,22,04,03,4.20
2013,04,22,04,04,4.20
2013,04,22,04,05,4.20
2013,04,22,04,06,4.20
2013,04,22,04,07,4.20
2013,04,22,04,08,4.20
2013,04,22,04,09,4.30
2013,04,22,04,10,4.30
2013,04,22,04,11,4.40
2013,04,22,04,12,4.40
2013,04,22,04,13,4.50
2013,04,22,04,14,4.60
2013,04,22,04,15,4.70
2013,04,22,04,16,4.80
2013,04,22,04,17,4.90
2013,04,22,04,18,4.90
2013,04,22,04,19,4.90
2013,04,22,04,20,5.00
2013,04,22,04,21,5.10
2013,04,22,04,22,5.10
2013,04,22,04,23,5.20
2013,04,22,04,24,5.20
2013,04,22,04,25,5.30
2013,04,22,04,26,5.30
2013,04,22,04,27,5.30
2013,04,22,04,28,5.30
2013,04,22,04,29,5.30
2013,04,22,04,30,5.30
2013,04,22,04,31,5.30
2013,04,22,04,32,5.30
2013,04,22,04,33,5.30
2013,04,22,04,34,5.30
2013,04,22,04,35,5.30
2013,04,22,04,36,5.30
2013,04,22,04,37,5.40
2013,04,22,04,38,5.40
2013,04,22,04,39,5.50
2013,04,22,04,40,5.50
2013,04,22,04,41,5.50
2013,04,22,04,42,5.50
2013,04,22,04,43,5.50
2013,04,22,04,44,5.50
2013,04,22,04,45,5.50
2013,04,22,04,46,5.60
2013,04,22,04,47,5.60
2013,04,22,04,48,5.60
2013,04,22,04,49,5.60
2013,04,22,04,50,5.60
2013,04,22,04,51,5.60
2013,04,22,04,52,5.60
2013,04,22,04,53,5.60
2013,04,22,04,54,5.60
2013,04,22,04,55,5.60
2013,04,22,04,56,5.60
2013,04,22,04,57,5.60
2013,04,22,04,58,5.60
2013,04,22,04,59,5.60
2013,04,22,05,00,5.60
2013,04,22,05,01,5.50
2013,04,22,05,02,5.50
2013,04,22,05,03,5.50
2013,04,22,05,04,5.60
2013,04,22,05,05,5.90
2013,04,22,05,06,6.10
2013,04,22,05,07,6.40
2013,04,22,05,08,6.70
2013,04,22,05,09,6.90
2013,04,22,05,10,7.10
2013,04,22,05,11,7.20
2013,04,22,05,12,7.40
2013,04,22,05,13,7.50
2013,04,22,05,14,7.50
2013,04,22,05,15,7.50
2013,04,22,05,16,7.50
2013,04,22,05,17,7.60
2013,04,22,05,18,7.60
2013,04,22,05,19,7.50
2013,04,22,05,20,7.60
2013,04,22,05,21,7.70
2013,04,22,05,22,7.80
2013,04,22,05,23,7.80
2013,04,22,05,24,7.80
2013,04,22,05,25,7.80
2013,04,22,05,26,7.80
2013,04,22,05,27,7.70
2013,04,22,05,28,7.50
2013,04,22,05,29,7.40
2013,04,22,05,30,7.30
2013,04,22,05,31,7.20
2013,04,22,05,32,7.10
2013,04,22,05,33,7.00
2013,04,22,05,34,7.00
2013,04,22,05,35,6.90
2013,04,22,05,36,6.80
2013,04,22,05,37,6.70
2013,04,22,05,38,6.70
2013,04,22,05,39,6.60
2013,04,22,05,40,6.50
2013,04,22,05,41,6.40
2013,04,22,05,42,6.40
2013,04,22,05,43,6.30
2013,04,22,05,44,6.30
2013,04,22,05,45,6.30
2013,04,22,05,46,6.30
2013,04,22,05,47,6.30
2013,04,22,05,48,6.30
2013,04,22,05,49,6.20
2013,04,22,05,50,6.20
2013,04,22,05,51,6.20
2013,04,22,05,52,6.10
2013,04,22,05,53,6.10
2013,04,22,05,54,6.00
2013,04,22,05,55,6.00
2013,04,22,05,56,5.90
2013,04,22,05,57,5.90
2013,04,22,05,58,5.80
2013,04,22,05,59,5.70
2013,04,22,06,00,5.70
2013,04,22,06,01,5.70
2013,04,22,06,02,5.70
2013,04,22,06,03,5.60
2013,04,22,06,04,5.60
2013,04,22,06,05,5.60
2013,04,22,06,06,5.50
2013,04,22,06,07,5.50
2013,04,22,06,08,5.50
2013,04,22,06,09,5.50
2013,04,22,06,10,5.40
2013,04,22,06,11,5.40
2013,04,22,06,12,5.40
2013,04,22,06,13,5.30
2013,04,22,06,14,5.30
2013,04,22,06,15,5.30
2013,04,22,06,16,5.30
2013,04,22,06,17,5.30
2013,04,22,06,18,5.30
2013,04,22,06,19,5.30
2013,04,22,06,20,5.30
2013,04,22,06,21,5.30
2013,04,22,06,22,5.30
2013,04,22,06,23,5.30
2013,04,22,06,24,5.30
2013,04,22,06,25,5.30
2013,04,22,06,26,5.30
2013,04,22,06,27,5.30
2013,04,22,06,28,5.30
2013,04,22,06,29,5.30
2013,04,22,06,30,5.30
2013,04,22,06,31,5.30
2013,04,22,06,32,5.30
2013,04,22,06,33,5.30
2013,04,22,06,34,5.30
2013,04,22,06,35,5.30
2013,04,22,06,36,5.30
2013,04,22,06,37,5.30
2013,04,22,06,38,5.30
2013,04,22,06,39,5.30
2013,04,22,06,40,5.30
2013,04,22,06,41,5.30
2013,04,22,06,42,5.30
2013,04,22,06,43,5.30
2013,04,22,06,44,5.30
2013,04,22,06,45,5.30
2013,04,22,06,46,5.40
2013,04,22,06,47,5.40
2013,04,22,06,48,5.40
2013,04,22,06,49,5.40
2013,04,22,06,50,5.40
2013,04,22,06,51,5.40
2013,04,22,06,52,5.40
2013,04,22,06,53,5.40
2013,04,22,06,54,5.40
2013,04,22,06,55,5.40
2013,04,22,06,56,5.40
2013,04,22,06,57,5.40
2013,04,22,06,58,5.40
2013,04,22,06,59,5.40
2013,04,22,07,00,5.40
2013,04,22,07,01,5.50
2013,04,22,07,02,5.40
2013,04,22,07,03,5.40
2013,04,22,07,04,5.40
2013,04,22,07,05,5.40
2013,04,22,07,06,5.50
2013,04,22,07,07,5.50
2013,04,22,07,08,5.50
2013,04,22,07,09,5.50
2013,04,22,07,10,5.60
2013,04,22,07,11,5.60
2013,04,22,07,12,5.60
2013,04,22,07,13,5.70
2013,04,22,07,14,5.70
2013,04,22,07,15,5.70
2013,04,22,07,16,5.70
2013,04,22,07,17,5.80
2013,04,22,07,18,5.80
2013,04,22,07,19,5.90
2013,04,22,07,20,5.90
2013,04,22,07,21,6.00
2013,04,22,07,22,6.00
2013,04,22,07,23,6.10
2013,04,22,07,24,6.20
2013,04,22,07,25,6.20
2013,04,22,07,26,6.20
2013,04,22,07,27,6.20
2013,04,22,07,28,6.30
2013,04,22,07,29,6.30
2013,04,22,07,30,6.30
2013,04,22,07,31,6.40
2013,04,22,07,32,6.40
2013,04,22,07,33,6.40
2013,04,22,07,34,6.40
2013,04,22,07,35,6.40
2013,04,22,07,36,6.40
2013,04,22,07,37,6.40
2013,04,22,07,38,6.40
2013,04,22,07,39,6.40
2013,04,22,07,40,6.40
2013,04,22,07,41,6.50
2013,04,22,07,42,6.60
2013,04,22,07,43,6.60
2013,04,22,07,44,6.60
2013,04,22,07,45,6.60
2013,04,22,07,46,6.70
2013,04,22,07,47,6.70
2013,04,22,07,48,6.70
2013,04,22,07,49,6.70
2013,04,22,07,50,6.80
2013,04,22,07,51,6.80
2013,04,22,07,52,6.80
2013,04,22,07,53,6.80
2013,04,22,07,54,6.80
2013,04,22,07,55,6.80
2013,04,22,07,56,6.80
2013,04,22,07,57,6.80
2013,04,22,07,58,6.90
2013,04,22,07,59,6.90
2013,04,22,08,00,6.90
2013,04,22,08,01,7.00
2013,04,22,08,02,7.00
2013,04,22,08,03,7.00
2013,04,22,08,04,7.10
2013,04,22,08,05,7.10
2013,04,22,08,06,7.10
2013,04,22,08,07,7.10
2013,04,22,08,08,7.10
2013,04,22,08,09,7.20
2013,04,22,08,10,7.20
2013,04,22,08,11,7.30
2013,04,22,08,12,7.30
2013,04,22,08,13,7.40
2013,04,22,08,14,7.50
2013,04,22,08,15,7.50
2013,04,22,08,16,7.60
2013,04,22,08,17,7.60
2013,04,22,08,18,7.50
2013,04,22,08,19,7.60
2013,04,22,08,20,7.60
2013,04,22,08,21,7.70
2013,04,22,08,22,7.70
2013,04,22,08,23,7.70
2013,04,22,08,24,7.70
2013,04,22,08,25,7.60
2013,04,22,08,26,7.70
2013,04,22,08,27,7.70
2013,04,22,08,28,7.70
2013,04,22,08,29,7.70
2013,04,22,08,30,7.70
2013,04,22,08,31,7.70
2013,04,22,08,32,7.60
2013,04,22,08,33,7.50
2013,04,22,08,34,7.50
2013,04,22,08,35,7.50
2013,04,22,08,36,7.60
2013,04,22,08,37,7.60
2013,04,22,08,38,7.70
2013,04,22,08,39,7.70
2013,04,22,08,40,7.70
2013,04,22,08,41,7.70
2013,04,22,08,42,7.80
2013,04,22,08,43,7.80
2013,04,22,08,44,7.80
2013,04,22,08,45,7.80
2013,04,22,08,46,7.90
2013,04,22,08,47,7.90
2013,04,22,08,48,8.00
2013,04,22,08,49,8.10
2013,04,22,08,50,8.10
2013,04,22,08,51,8.20
2013,04,22,08,52,8.20
2013,04,22,08,53,8.30
2013,04,22,08,54,8.30
2013,04,22,08,55,8.30
2013,04,22,08,56,8.40
2013,04,22,08,57,8.40
2013,04,22,08,58,8.40
2013,04,22,08,59,8.40
2013,04,22,09,00,8.40
2013,04,22,09,01,8.40
2013,04,22,09,02,8.30
2013,04,22,09,03,8.40
2013,04,22,09,04,8.40
2013,04,22,09,05,8.50
2013,04,22,09,06,8.50
2013,04,22,09,07,8.50
2013,04,22,09,08,8.60
2013,04,22,09,09,8.70
2013,04,22,09,10,8.60
2013,04,22,09,11,8.50
2013,04,22,09,12,8.50
2013,04,22,09,13,8.40
2013,04,22,09,14,8.40
2013,04,22,09,15,8.50
2013,04,22,09,16,8.40
2013,04,22,09,17,8.40
2013,04,22,09,18,8.40
2013,04,22,09,19,8.50
2013,04,22,09,20,8.50
2013,04,22,09,21,8.60
2013,04,22,09,22,8.60
2013,04,22,09,23,8.60
2013,04,22,09,24,8.70
2013,04,22,09,25,8.70
2013,04,22,09,26,8.70
2013,04,22,09,27,8.80
2013,04,22,09,28,8.90
2013,04,22,09,29,8.90
2013,04,22,09,30,8.90
2013,04,22,09,31,9.00
2013,04,22,09,32,9.10
2013,04,22,09,33,9.20
2013,04,22,09,34,9.20
2013,04,22,09,35,9.30
2013,04,22,09,36,9.30
2013,04,22,09,37,9.30
2013,04,22,09,38,9.30
2013,04,22,09,39,9.30
2013,04,22,09,40,9.10
2013,04,22,09,41,9.00
2013,04,22,09,42,8.90
2013,04,22,09,43,8.90
2013,04,22,09,44,9.00
2013,04,22,09,45,9.00
2013,04,22,09,46,9.00
2013,04,22,09,47,9.00
2013,04,22,09,48,9.00
2013,04,22,09,49,9.00
2013,04,22,09,50,9.10
2013,04,22,09,51,9.10
2013,04,22,09,52,9.10
2013,04,22,09,53,9.00
2013,04,22,09,54,9.00
2013,04,22,09,55,9.10
2013,04,22,09,56,9.10
2013,04,22,09,57,9.20
2013,04,22,09,58,9.40
2013,04,22,09,59,9.50
2013,04,22,10,00,9.60
2013,04,22,10,01,9.70
2013,04,22,10,02,9.70
2013,04,22,10,03,9.70
2013,04,22,10,04,9.50
2013,04,22,10,05,9.50
2013,04,22,10,06,9.40
2013,04,22,10,07,9.40
2013,04,22,10,08,9.30
2013,04,22,10,09,9.20
2013,04,22,10,10,9.20
2013,04,22,10,11,9.20
2013,04,22,10,12,9.20
2013,04,22,10,13,9.20
2013,04,22,10,14,9.20
2013,04,22,10,15,9.20
2013,04,22,10,16,9.30
2013,04,22,10,17,9.20
2013,04,22,10,18,9.30
2013,04,22,10,19,9.30
2013,04,22,10,20,9.30
2013,04,22,10,21,9.30
2013,04,22,10,22,9.30
2013,04,22,10,23,9.40
2013,04,22,10,24,9.40
2013,04,22,10,25,9.50
2013,04,22,10,26,9.50
2013,04,22,10,27,9.50
2013,04,22,10,28,9.50
2013,04,22,10,29,9.60
2013,04,22,10,30,9.70
2013,04,22,10,31,9.70
2013,04,22,10,32,9.80
2013,04,22,10,33,9.80
2013,04,22,10,34,9.90
2013,04,22,10,35,9.90
2013,04,22,10,36,9.90
2013,04,22,10,37,9.90
2013,04,22,10,38,9.90
2013,04,22,10,39,9.90
2013,04,22,10,40,9.90
2013,04,22,10,41,9.90
2013,04,22,10,42,9.90
2013,04,22,10,43,10.00
2013,04,22,10,44,10.10
2013,04,22,10,45,10.10
2013,04,22,10,46,10.10
2013,04,22,10,47,10.10
2013,04,22,10,48,10.10
2013,04,22,10,49,10.10
2013,04,22,10,50,10.10
2013,04,22,10,51,10.10
2013,04,22,10,52,10.20
2013,04,22,10,53,10.30
2013,04,22,10,54,10.40
2013,04,22,10,55,10.40
2013,04,22,10,56,10.40
2013,04,22,10,57,10.40
2013,04,22,10,58,10.40
2013,04,22,10,59,10.40
2013,04,22,11,00,10.40
2013,04,22,11,01,10.40
2013,04,22,11,02,10.40
2013,04,22,11,03,10.40
2013,04,22,11,04,10.50
2013,04,22,11,05,10.60
2013,04,22,11,06,10.70
2013,04,22,11,07,10.80
2013,04,22,11,08,10.80
2013,04,22,11,09,10.80
2013,04,22,11,10,10.70
2013,04,22,11,11,10.70
2013,04,22,11,12,10.80
2013,04,22,11,13,10.80
2013,04,22,11,14,10.90
2013,04,22,11,15,10.90
2013,04,22,11,16,10.90
2013,04,22,11,17,10.90
2013,04,22,11,18,10.90
2013,04,22,11,19,10.90
2013,04,22,11,20,10.90
2013,04,22,11,21,10.90
2013,04,22,11,22,10.90
2013,04,22,11,23,10.90
2013,04,22,11,24,10.80
2013,04,22,11,25,10.80
2013,04,22,11,26,10.90
2013,04,22,11,27,10.90
2013,04,22,11,28,10.90
2013,04,22,11,29,11.00
2013,04,22,11,30,11.10
2013,04,22,11,31,11.10
2013,04,22,11,32,11.10
2013,04,22,11,33,11.10
2013,04,22,11,34,11.00
2013,04,22,11,35,10.90
2013,04,22,11,36,10.90
2013,04,22,11,37,10.90
2013,04,22,11,38,10.90
2013,04,22,11,39,10.90
2013,04,22,11,40,11.00
2013,04,22,11,41,10.90
2013,04,22,11,42,10.90
2013,04,22,11,43,10.90
2013,04,22,11,44,10.90
2013,04,22,11,45,11.00
2013,04,22,11,46,11.10
2013,04,22,11,47,11.10
2013,04,22,11,48,11.10
2013,04,22,11,49,11.10
2013,04,22,11,50,11.10
2013,04,22,11,51,11.20
2013,04,22,11,52,11.30
2013,04,22,11,53,11.40
2013,04,22,11,54,11.40
2013,04,22,11,55,11.40
2013,04,22,11,56,11.40
2013,04,22,11,57,11.40
2013,04,22,11,58,11.40
2013,04,22,11,59,11.40
2013,04,22,12,00,11.40
2013,04,22,12,01,11.40
2013,04,22,12,02,11.20
2013,04,22,12,03,11.10
2013,04,22,12,04,11.10
2013,04,22,12,05,11.10
2013,04,22,12,06,11.10
2013,04,22,12,07,11.00
2013,04,22,12,08,10.90
2013,04,22,12,09,10.90
2013,04,22,12,10,11.00
2013,04,22,12,11,11.10
2013,04,22,12,12,11.30
2013,04,22,12,13,11.40
2013,04,22,12,14,11.40
2013,04,22,12,15,11.60
2013,04,22,12,16,11.80
2013,04,22,12,17,11.90
2013,04,22,12,18,12.00
2013,04,22,12,19,12.20
2013,04,22,12,20,12.20
2013,04,22,12,21,12.30
2013,04,22,12,22,12.30
2013,04,22,12,23,12.30
2013,04,22,12,24,12.30
2013,04,22,12,25,12.30
2013,04,22,12,26,12.40
2013,04,22,12,27,12.50
2013,04,22,12,28,12.70
2013,04,22,12,29,12.80
2013,04,22,12,30,12.70
2013,04,22,12,31,12.70
2013,04,22,12,32,12.80
2013,04,22,12,33,12.80
2013,04,22,12,34,12.80
2013,04,22,12,35,12.80
2013,04,22,12,36,12.80
2013,04,22,12,37,12.80
2013,04,22,12,38,12.90
2013,04,22,12,39,12.90
2013,04,22,12,40,13.00
2013,04,22,12,41,13.10
2013,04,22,12,42,13.20
2013,04,22,12,43,13.20
2013,04,22,12,44,13.20
2013,04,22,12,45,13.10
2013,04,22,12,46,13.00
2013,04,22,12,47,12.90
2013,04,22,12,48,12.80
2013,04,22,12,49,12.70
2013,04,22,12,50,12.60
2013,04,22,12,51,12.60
2013,04,22,12,52,12.70
2013,04,22,12,53,12.70
2013,04,22,12,54,12.80
2013,04,22,12,55,12.80
2013,04,22,12,56,12.80
2013,04,22,12,57,12.90
2013,04,22,12,58,12.90
2013,04,22,12,59,12.90
2013,04,22,13,00,12.90
2013,04,22,13,01,13.00
2013,04,22,13,02,13.00
2013,04,22,13,03,13.00
2013,04,22,13,04,13.10
2013,04,22,13,05,13.20
2013,04,22,13,06,13.30
2013,04,22,13,07,13.40
2013,04,22,13,08,13.50
2013,04,22,13,09,13.50
2013,04,22,13,10,13.50
2013,04,22,13,11,13.50
2013,04,22,13,12,13.50
2013,04,22,13,13,13.50
2013,04,22,13,14,13.50
2013,04,22,13,15,13.50
2013,04,22,13,16,13.60
2013,04,22,13,17,13.70
2013,04,22,13,18,13.70
2013,04,22,13,19,13.70
2013,04,22,13,20,13.70
2013,04,22,13,21,13.70
2013,04,22,13,22,13.60
2013,04,22,13,23,13.60
2013,04,22,13,24,13.50
2013,04,22,13,25,13.40
2013,04,22,13,26,13.30
2013,04,22,13,27,13.30
2013,04,22,13,28,13.30
2013,04,22,13,29,13.20
2013,04,22,13,30,13.20
2013,04,22,13,31,13.30
2013,04,22,13,32,13.40
2013,04,22,13,33,13.40
2013,04,22,13,34,13.50
2013,04,22,13,35,13.40
2013,04,22,13,36,13.40
2013,04,22,13,37,13.50
2013,04,22,13,38,13.50
2013,04,22,13,39,13.50
2013,04,22,13,40,13.50
2013,04,22,13,41,13.50
2013,04,22,13,42,13.40
2013,04,22,13,43,13.40
2013,04,22,13,44,13.50
2013,04,22,13,45,13.60
2013,04,22,13,46,13.60
2013,04,22,13,47,13.80
2013,04,22,13,48,13.90
2013,04,22,13,49,13.90
2013,04,22,13,50,13.90
2013,04,22,13,51,14.00
2013,04,22,13,52,14.00
2013,04,22,13,53,14.00
2013,04,22,13,54,14.00
2013,04,22,13,55,14.00
2013,04,22,13,56,14.00
2013,04,22,13,57,14.00
2013,04,22,13,58,13.90
2013,04,22,13,59,13.80
2013,04,22,14,00,13.80
2013,04,22,14,01,13.90
2013,04,22,14,02,14.00
2013,04,22,14,03,14.00
2013,04,22,14,04,14.10
2013,04,22,14,05,14.20
2013,04,22,14,06,14.20
2013,04,22,14,07,14.30
2013,04,22,14,08,14.40
2013,04,22,14,09,14.40
2013,04,22,14,10,14.40
2013,04,22,14,11,14.40
2013,04,22,14,12,14.40
2013,04,22,14,13,14.40
2013,04,22,14,14,14.30
2013,04,22,14,15,14.40
2013,04,22,14,16,14.50
2013,04,22,14,17,14.50
2013,04,22,14,18,14.60
2013,04,22,14,19,14.70
2013,04,22,14,20,14.80
2013,04,22,14,21,14.80
2013,04,22,14,22,14.80
2013,04,22,14,23,15.00
2013,04,22,14,24,15.10
2013,04,22,14,25,15.20
2013,04,22,14,26,15.30
2013,04,22,14,27,15.30
2013,04,22,14,28,15.30
2013,04,22,14,29,15.30
2013,04,22,14,30,15.20
2013,04,22,14,31,15.10
2013,04,22,14,32,15.10
2013,04,22,14,33,15.10
2013,04,22,14,34,15.20
2013,04,22,14,35,15.40
2013,04,22,14,36,15.50
2013,04,22,14,37,15.60
2013,04,22,14,38,15.60
2013,04,22,14,39,15.60
2013,04,22,14,40,15.50
2013,04,22,14,41,15.50
2013,04,22,14,42,15.60
2013,04,22,14,43,15.60
2013,04,22,14,44,15.60
2013,04,22,14,45,15.60
2013,04,22,14,46,15.60
2013,04,22,14,47,15.70
2013,04,22,14,48,15.70
2013,04,22,14,49,15.80
2013,04,22,14,50,15.80
2013,04,22,14,51,15.90
2013,04,22,14,52,16.00
2013,04,22,14,53,16.10
2013,04,22,14,54,16.10
2013,04,22,14,55,16.10
2013,04,22,14,56,16.10
2013,04,22,14,57,16.00
2013,04,22,14,58,15.80
2013,04,22,14,59,15.80
2013,04,22,15,00,15.80
2013,04,22,15,01,15.70
2013,04,22,15,02,15.70
2013,04,22,15,03,15.70
2013,04,22,15,04,15.70
2013,04,22,15,05,15.70
2013,04,22,15,06,15.70
2013,04,22,15,07,15.60
2013,04,22,15,08,15.50
2013,04,22,15,09,15.40
2013,04,22,15,10,15.50
2013,04,22,15,11,15.50
2013,04,22,15,12,15.50
2013,04,22,15,13,15.50
2013,04,22,15,14,15.40
2013,04,22,15,15,15.40
2013,04,22,15,16,15.40
2013,04,22,15,17,15.50
2013,04,22,15,18,15.50
2013,04,22,15,19,15.40
2013,04,22,15,20,15.40
2013,04,22,15,21,15.30
2013,04,22,15,22,15.20
2013,04,22,15,23,15.10
2013,04,22,15,24,15.10
2013,04,22,15,25,15.30
2013,04,22,15,26,15.40
2013,04,22,15,27,15.60
2013,04,22,15,28,15.70
2013,04,22,15,29,15.80
2013,04,22,15,30,15.70
2013,04,22,15,31,15.60
2013,04,22,15,32,15.50
2013,04,22,15,33,15.50
2013,04,22,15,34,15.60
2013,04,22,15,35,15.60
2013,04,22,15,36,15.80
2013,04,22,15,37,15.80
2013,04,22,15,38,15.80
2013,04,22,15,39,15.80
2013,04,22,15,40,15.80
2013,04,22,15,41,15.90
2013,04,22,15,42,15.80
2013,04,22,15,43,15.70
2013,04,22,15,44,15.60
2013,04,22,15,45,15.50
2013,04,22,15,46,15.40
2013,04,22,15,47,15.40
2013,04,22,15,48,15.30
2013,04,22,15,49,15.30
2013,04,22,15,50,15.30
2013,04,22,15,51,15.40
2013,04,22,15,52,15.50
2013,04,22,15,53,15.50
2013,04,22,15,54,15.50
2013,04,22,15,55,15.40
2013,04,22,15,56,15.40
2013,04,22,15,57,15.30
2013,04,22,15,58,15.40
2013,04,22,15,59,15.40
2013,04,22,16,00,15.30
2013,04,22,16,01,15.20
2013,04,22,16,02,15.30
2013,04,22,16,03,15.30
2013,04,22,16,04,15.30
2013,04,22,16,05,15.30
2013,04,22,16,06,15.40
2013,04,22,16,07,15.50
2013,04,22,16,08,15.70
2013,04,22,16,09,15.80
2013,04,22,16,10,16.00
2013,04,22,16,11,16.10
2013,04,22,16,12,16.20
2013,04,22,16,13,16.10
2013,04,22,16,14,16.10
2013,04,22,16,15,16.20
2013,04,22,16,16,16.20
2013,04,22,16,17,16.10
2013,04,22,16,18,15.90
2013,04,22,16,19,15.80
2013,04,22,16,20,15.70
2013,04,22,16,21,15.80
2013,04,22,16,22,15.90
2013,04,22,16,23,15.80
2013,04,22,16,24,15.80
2013,04,22,16,25,15.80
2013,04,22,16,26,15.80
2013,04,22,16,27,15.90
2013,04,22,16,28,16.00
2013,04,22,16,29,16.10
2013,04,22,16,30,16.20
2013,04,22,16,31,16.40
2013,04,22,16,32,16.40
2013,04,22,16,33,16.40
2013,04,22,16,34,16.40
2013,04,22,16,35,16.40
2013,04,22,16,36,16.50
2013,04,22,16,37,16.60
2013,04,22,16,38,16.70
2013,04,22,16,39,16.80
2013,04,22,16,40,16.90
2013,04,22,16,41,16.80
2013,04,22,16,42,16.90
2013,04,22,16,43,17.00
2013,04,22,16,44,17.00
2013,04,22,16,45,17.00
2013,04,22,16,46,16.90
2013,04,22,16,47,16.80
2013,04,22,16,48,16.60
2013,04,22,16,49,16.60
2013,04,22,16,50,16.60
2013,04,22,16,51,16.60
2013,04,22,16,52,16.70
2013,04,22,16,53,16.70
2013,04,22,16,54,16.60
2013,04,22,16,55,16.60
2013,04,22,16,56,16.70
2013,04,22,16,57,16.70
2013,04,22,16,58,16.70
2013,04,22,16,59,16.60
2013,04,22,17,00,16.70
2013,04,22,17,01,16.60
2013,04,22,17,02,16.50
2013,04,22,17,03,16.40
2013,04,22,17,04,16.40
2013,04,22,17,05,16.40
2013,04,22,17,06,16.50
2013,04,22,17,07,16.60
2013,04,22,17,08,16.70
2013,04,22,17,09,16.70
2013,04,22,17,10,16.70
2013,04,22,17,11,16.70
2013,04,22,17,12,16.70
2013,04,22,17,13,16.80
2013,04,22,17,14,16.80
2013,04,22,17,15,16.70
2013,04,22,17,16,16.70
2013,04,22,17,17,16.60
2013,04,22,17,18,16.60
2013,04,22,17,19,16.60
2013,04,22,17,20,16.70
2013,04,22,17,21,16.70
2013,04,22,17,22,16.80
2013,04,22,17,23,16.90
2013,04,22,17,24,17.00
2013,04,22,17,25,17.00
2013,04,22,17,26,17.10
2013,04,22,17,27,17.10
2013,04,22,17,28,17.00
2013,04,22,17,29,16.90
2013,04,22,17,30,16.80
2013,04,22,17,31,16.80
2013,04,22,17,32,16.80
2013,04,22,17,33,16.80
2013,04,22,17,34,16.70
2013,04,22,17,35,16.70
2013,04,22,17,36,16.70
2013,04,22,17,37,16.70
2013,04,22,17,38,16.70
2013,04,22,17,39,16.70
2013,04,22,17,40,16.70
2013,04,22,17,41,16.70
2013,04,22,17,42,16.80
2013,04,22,17,43,16.80
2013,04,22,17,44,16.80
2013,04,22,17,45,16.80
2013,04,22,17,46,16.70
2013,04,22,17,47,16.80